Regional Weather Roundup
Issued by NWS Goodland, KS

Home | Current Version | Previous Version | Graphics & Text | Print | Product List | Glossary On
Versions: 1 2 3 4 5 6 7 8 9 10 11 12 13 14 15 16 17 18 19 20 21 22 23 24 25 26 27 28 29 30 31 32 33 34 35 36 37 38 39 40 41 42 43 44 45 46 47 48 49 50
000
ASUS43 KGLD 240859
RWRGLD

GOODLAND FORECAST AREA HOURLY WEATHER ROUNDUP
NATIONAL WEATHER SERVICE GOODLAND KS
300 AM MDT TUE MAY 24 2016

...OFFICIAL OBSERVATIONS...

CITY           SKY/WX    TMP DP  RH WIND       PRES   REMARKS
GOODLAND KS    CLOUDY    54  46  74 N9        29.84R
HILL CITY KS   TSTM      60  58  92 SE13      29.82R FOG
IMPERIAL NEB   LGT RAIN  54  49  83 S14       29.88F
MCCOOK NEB     CLOUDY    55  47  74 NE12      29.82F
AKRON CO       CLOUDY    48  45  89 W5        29.89S
BURLINGTON CO  CLOUDY    53  42  66 N10       29.87R
LIMON CO       CLEAR     43  40  89 NW6       29.91F
$$

...UNOFFICIAL OBSERVATIONS...

CITY           SKY/WX    TMP DP  RH WIND       PRES   REMARKS
COLBY KS       CLOUDY    57  52  82 N9        29.80S
LENORA KS        N/A     60  32  34 MISG        N/A
NORTON KS      LGT RAIN  61  54  77 N6        29.77F
SHARON SPRINGS   N/A     62  60  93 CALM        N/A
TRIBUNE KS     PTCLDY    66  63  88 S16       29.77
KIT CARSON CO    N/A     55  45  69 MISG        N/A
YUMA CO          N/A     54  50  87 E12         N/A
$$




USA.gov is the U.S. government's official web portal to all federal, state and local government web resources and services.